This is the latest recevied weather packets stored in our database for station/object KE6RLG. If no packets are shown the sender has not sent any weather packets the latest 10 day(s).
| Time | Temp. | Humidity | Pressure | Rain* | Wind** | Luminosity | Snow |
|---|---|---|---|---|---|---|---|
| 1777202425 | 12.78° C | 77% | 1011.5 hPa | 0 mm | - | 0 W/m² | - |
| 1777201222 | 13.33° C | 75% | 1011.4 hPa | 0 mm | - | 0 W/m² | - |
| 1777199122 | 13.33° C | 76% | 1011.3 hPa | 0 mm | - | 0 W/m² | - |
| 1777198525 | 13.33° C | 76% | 1011.3 hPa | 0 mm | - | 0 W/m² | - |
| 1777197325 | 13.33° C | 76% | 1011.4 hPa | 0 mm | - | 0 W/m² | - |
| 1777197025 | 13.33° C | 76% | 1011.5 hPa | 0 mm | - | 0 W/m² | - |
| 1777195517 | 13.89° C | 79% | 1011.6 hPa | 0 mm | - | 0 W/m² | - |
| 1777195237 | 13.33° C | 79% | 1011.7 hPa | 0 mm | - | 0 W/m² | - |
| 1777193443 | 13.33° C | 78% | 1011.8 hPa | 0 mm | - | 0 W/m² | - |
| 1777191926 | 13.33° C | 71% | 1012 hPa | 0 mm | - | 0 W/m² | - |
| 1777189547 | 13.33° C | 74% | 1012.1 hPa | 0 mm | - | 0 W/m² | - |
| 1777188626 | 13.33° C | 74% | 1012.2 hPa | 0 mm | - | 0 W/m² | - |
| 1777188327 | 13.33° C | 74% | 1012.2 hPa | 0 mm | - | 0 W/m² | - |
| 1777186827 | 13.33° C | 74% | 1012.2 hPa | 0 mm | - | 0 W/m² | - |
| 1777185328 | 13.89° C | 75% | 1012.1 hPa | 0 mm | - | 0 W/m² | - |
| 1777183228 | 13.89° C | 74% | 1012.2 hPa | 0 mm | - | 0 W/m² | - |
| 1777182628 | 13.89° C | 74% | 1012.3 hPa | 0 mm | - | 0 W/m² | - |
| 1777181428 | 13.89° C | 72% | 1012.4 hPa | 0 mm | - | 0 W/m² | - |
| 1777180228 | 13.89° C | 70% | 1012.5 hPa | 0 mm | - | 0 W/m² | - |
| 1777177829 | 13.33° C | 71% | 1012.4 hPa | 0 mm | - | 0 W/m² | - |
| 1777176618 | 13.33° C | 73% | 1012.3 hPa | 0 mm | - | 0 W/m² | - |
| 1777176018 | 13.89° C | 75% | 1012.2 hPa | 0 mm | - | 0 W/m² | - |
| 1777175121 | 13.89° C | 75% | 1012.1 hPa | 0 mm | - | 0 W/m² | - |
| 1777173318 | 14.44° C | 69% | 1012 hPa | 0 mm | - | 0 W/m² | - |
| 1777170939 | 14.44° C | 70% | 1011.7 hPa | 0 mm | - | 2 W/m² | - |
* Rain latest hour (hover to see other rain measurements)
** Current wind speed in m/s (hover to see current wind gust speed)